| time (UTC) | temp F | wind direction | speed MPH | gust MPH | rain 1hr in | rain 24hr in | rain mn in | humidity % | barometer mb |
| 20260510173604 | 78 | 207 | 2.0 | 7.0 | 0.00 | 0.00 | 0.00 | 44 | 1061.7 |
| 20260510172704 | 79 | 238 | 2.0 | 6.0 | 0.00 | 0.00 | 0.00 | 41 | 1061.8 |
| 20260510171804 | 78 | 200 | 3.0 | 8.0 | 0.00 | 0.00 | 0.00 | 44 | 1061.8 |
| 20260510170904 | 79 | 207 | 2.0 | 7.0 | 0.00 | 0.00 | 0.00 | 43 | 1061.7 |
| 20260510170025 | 77 | 228 | 2.0 | 6.0 | 0.00 | 0.00 | 0.00 | 46 | 1061.8 |
| 20260510165425 | 78 | 229 | 2.0 | 6.0 | 0.00 | 0.00 | 0.00 | 45 | 1062.0 |
| 20260510164504 | 76 | 209 | 2.0 | 6.0 | 0.00 | 0.00 | 0.00 | 47 | 1062.0 |
| 20260510163625 | 76 | 213 | 2.0 | 6.0 | 0.00 | 0.00 | 0.00 | 46 | 1062.0 |
| 20260510162704 | 76 | 223 | 2.0 | 6.0 | 0.00 | 0.00 | 0.00 | 46 | 1062.0 |
| 20260510161804 | 75 | 202 | 2.0 | 7.0 | 0.00 | 0.00 | 0.00 | 48 | 1062.0 |
| 20260510160904 | 75 | 206 | 2.0 | 4.0 | 0.00 | 0.00 | 0.00 | 48 | 1062.3 |
| 20260510160026 | 74 | 207 | 1.0 | 6.0 | 0.00 | 0.00 | 0.00 | 48 | 1062.4 |
| 20260510155404 | 74 | 217 | 1.0 | 7.0 | 0.00 | 0.00 | 0.00 | 49 | 1062.1 |
| 20260510154504 | 74 | 231 | 1.0 | 4.0 | 0.00 | 0.00 | 0.00 | 50 | 1062.3 |
| 20260510153604 | 73 | 222 | 1.0 | 6.0 | 0.00 | 0.00 | 0.00 | 50 | 1062.4 |
| 20260510152704 | 73 | 224 | 1.0 | 6.0 | 0.00 | 0.00 | 0.00 | 51 | 1062.3 |
| 20260510151804 | 73 | 285 | 1.0 | 2.0 | 0.00 | 0.00 | 0.00 | 50 | 1062.2 |
| 20260510150904 | 72 | 228 | 1.0 | 6.0 | 0.00 | 0.00 | 0.00 | 51 | 1062.3 |
| 20260510150004 | 72 | 269 | 1.0 | 3.0 | 0.00 | 0.00 | 0.00 | 53 | 1062.2 |
| 20260510145404 | 72 | 231 | 1.0 | 4.0 | 0.00 | 0.00 | 0.00 | 52 | 1062.2 |
| 20260510144504 | 71 | 240 | 1.0 | 4.0 | 0.00 | 0.00 | 0.00 | 53 | 1062.4 |
| 20260510143604 | 70 | 281 | 1.0 | 4.0 | 0.00 | 0.00 | 0.00 | 56 | 1062.4 |
| 20260510142725 | 70 | 264 | 1.0 | 2.0 | 0.00 | 0.00 | 0.00 | 55 | 1062.5 |
| 20260510141804 | 70 | 284 | 1.0 | 3.0 | 0.00 | 0.00 | 0.00 | 57 | 1062.4 |
| 20260510140904 | 69 | 228 | 1.0 | 6.0 | 0.00 | 0.00 | 0.00 | 60 | 1062.4 |
| 20260510140004 | 67 | 240 | 0.0 | 2.0 | 0.00 | 0.00 | 0.00 | 64 | 1062.4 |
| 20260510135404 | 66 | 221 | 0.0 | 3.0 | 0.00 | 0.00 | 0.00 | 66 | 1062.9 |
| 20260510134505 | 65 | 229 | 0.0 | 2.0 | 0.00 | 0.00 | 0.00 | 69 | 1062.6 |
| 20260510133604 | 64 | 244 | 0.0 | 1.0 | 0.00 | 0.00 | 0.00 | 71 | 1062.6 |
| 20260510132725 | 63 | 0 | 0.0 | 0.0 | 0.00 | 0.00 | 0.00 | 72 | 1062.9 |
| 20260510131804 | 62 | 305 | 0.0 | 1.0 | 0.00 | 0.00 | 0.00 | 72 | 1062.6 |
| 20260510130925 | 61 | 303 | 0.0 | 1.0 | 0.00 | 0.00 | 0.00 | 73 | 1062.6 |
| 20260510130004 | 60 | 310 | 0.0 | 1.0 | 0.00 | 0.00 | 0.00 | 75 | 1062.3 |
| 20260510125404 | 60 | 322 | 0.0 | 1.0 | 0.00 | 0.00 | 0.00 | 75 | 1062.3 |
| 20260510124504 | 59 | 300 | 0.0 | 1.0 | 0.00 | 0.00 | 0.00 | 77 | 1062.2 |
| 20260510123604 | 58 | 302 | 0.0 | 1.0 | 0.00 | 0.00 | 0.00 | 79 | 1062.3 |
| 20260510122704 | 57 | 0 | 0.0 | 0.0 | 0.00 | 0.00 | 0.00 | 80 | 1062.1 |
| 20260510121804 | 57 | 0 | 0.0 | 0.0 | 0.00 | 0.00 | 0.00 | 81 | 1062.3 |
| 20260510120904 | 56 | 310 | 1.0 | 2.0 | 0.00 | 0.00 | 0.00 | 81 | 1061.9 |
| 20260510120004 | 55 | 310 | 0.0 | 2.0 | 0.00 | 0.00 | 0.00 | 85 | 1062.1 |
| 20260510115404 | 54 | 306 | 0.0 | 1.0 | 0.00 | 0.00 | 0.00 | 89 | 1062.1 |
| 20260510114504 | 53 | 0 | 0.0 | 0.0 | 0.00 | 0.00 | 0.00 | 89 | 1061.8 |
| 20260510113604 | 53 | 259 | 0.0 | 1.0 | 0.00 | 0.00 | 0.00 | 89 | 1061.8 |
| 20260510112704 | 53 | 256 | 0.0 | 1.0 | 0.00 | 0.00 | 0.00 | 89 | 1061.9 |
| 20260510111804 | 52 | 0 | 0.0 | 0.0 | 0.00 | 0.00 | 0.00 | 88 | 1061.7 |
| 20260510110926 | 52 | 0 | 0.0 | 0.0 | 0.00 | 0.00 | 0.00 | 88 | 1061.4 |
| 20260510110005 | 52 | 0 | 0.0 | 0.0 | 0.00 | 0.00 | 0.00 | 88 | 1061.3 |
| 20260510105425 | 51 | 0 | 0.0 | 0.0 | 0.00 | 0.00 | 0.00 | 88 | 1061.3 |
| 20260510104504 | 51 | 235 | 0.0 | 1.0 | 0.00 | 0.00 | 0.00 | 89 | 1061.0 |
| 20260510103604 | 51 | 240 | 0.0 | 1.0 | 0.00 | 0.00 | 0.00 | 88 | 1060.9 |
| 20260510102704 | 53 | 0 | 0.0 | 0.0 | 0.00 | 0.00 | 0.00 | 86 | 1060.9 |
| 20260510101825 | 53 | 298 | 0.0 | 1.0 | 0.00 | 0.00 | 0.00 | 85 | 1060.8 |
| 20260510100925 | 54 | 302 | 0.0 | 1.0 | 0.00 | 0.00 | 0.00 | 83 | 1060.6 |
| 20260510100004 | 54 | 309 | 0.0 | 1.0 | 0.00 | 0.00 | 0.00 | 83 | 1060.5 |
| 20260510095425 | 54 | 315 | 0.0 | 1.0 | 0.00 | 0.00 | 0.00 | 83 | 1060.5 |
| 20260510094504 | 54 | 308 | 0.0 | 1.0 | 0.00 | 0.00 | 0.00 | 83 | 1060.4 |
| 20260510093604 | 54 | 304 | 0.0 | 1.0 | 0.00 | 0.00 | 0.00 | 83 | 1060.4 |
| 20260510092704 | 54 | 306 | 0.0 | 1.0 | 0.00 | 0.00 | 0.00 | 83 | 1060.2 |
| 20260510091804 | 54 | 305 | 1.0 | 1.0 | 0.00 | 0.00 | 0.00 | 83 | 1060.2 |
| 20260510090904 | 54 | 293 | 1.0 | 2.0 | 0.00 | 0.00 | 0.00 | 83 | 1060.2 |
| 20260510090004 | 53 | 300 | 0.0 | 1.0 | 0.00 | 0.00 | 0.00 | 85 | 1059.8 |
| 20260510085404 | 51 | 238 | 0.0 | 1.0 | 0.00 | 0.00 | 0.00 | 87 | 1060.1 |
| 20260510084504 | 52 | 230 | 0.0 | 1.0 | 0.00 | 0.00 | 0.00 | 86 | 1060.0 |
| 20260510083604 | 52 | 0 | 0.0 | 0.0 | 0.00 | 0.00 | 0.00 | 84 | 1060.1 |
| 20260510082704 | 53 | 0 | 0.0 | 0.0 | 0.00 | 0.00 | 0.00 | 84 | 1060.1 |
| 20260510081804 | 53 | 0 | 0.0 | 0.0 | 0.00 | 0.00 | 0.00 | 84 | 1059.7 |
| 20260510080904 | 53 | 245 | 0.0 | 1.0 | 0.00 | 0.00 | 0.00 | 84 | 1060.0 |
| 20260510080004 | 54 | 237 | 0.0 | 1.0 | 0.00 | 0.00 | 0.00 | 81 | 1059.6 |
| 20260510075404 | 54 | 0 | 0.0 | 0.0 | 0.00 | 0.00 | 0.00 | 83 | 1059.5 |
| 20260510074504 | 53 | 0 | 0.0 | 0.0 | 0.00 | 0.00 | 0.00 | 83 | 1059.3 |
| 20260510073604 | 53 | 0 | 0.0 | 0.0 | 0.00 | 0.00 | 0.00 | 83 | 1059.3 |
| 20260510072704 | 53 | 0 | 0.0 | 0.0 | 0.00 | 0.00 | 0.00 | 83 | 1059.3 |
| 20260510071804 | 53 | 0 | 0.0 | 0.0 | 0.00 | 0.00 | 0.00 | 82 | 1059.3 |
| 20260510070904 | 54 | 0 | 0.0 | 0.0 | 0.00 | 0.00 | 0.00 | 81 | 1059.2 |
| 20260510070004 | 54 | 0 | 0.0 | 0.0 | 0.00 | 0.00 | 0.00 | 80 | 1059.3 |
| 20260510065404 | 54 | 0 | 0.0 | 0.0 | 0.00 | 0.00 | 0.00 | 80 | 1059.3 |
| 20260510064525 | 54 | 291 | 0.0 | 1.0 | 0.00 | 0.00 | 0.00 | 79 | 1059.1 |
| 20260510063625 | 55 | 0 | 0.0 | 0.0 | 0.00 | 0.00 | 0.00 | 78 | 1059.1 |
| 20260510062704 | 55 | 337 | 0.0 | 1.0 | 0.00 | 0.00 | 0.00 | 77 | 1059.3 |
| 20260510061804 | 56 | 254 | 0.0 | 1.0 | 0.00 | 0.00 | 0.00 | 77 | 1059.5 |
| 20260510060904 | 56 | 0 | 0.0 | 0.0 | 0.00 | 0.00 | 0.00 | 75 | 1059.3 |
| 20260510060004 | 57 | 225 | 0.0 | 1.0 | 0.00 | 0.00 | 0.00 | 74 | 1059.2 |
| 20260510055425 | 58 | 285 | 0.0 | 1.0 | 0.00 | 0.00 | 0.00 | 72 | 1059.4 |
| 20260510054525 | 59 | 310 | 1.0 | 2.0 | 0.00 | 0.00 | 0.00 | 70 | 1059.3 |
| 20260510053625 | 59 | 309 | 1.0 | 2.0 | 0.00 | 0.00 | 0.00 | 70 | 1059.3 |
| 20260510052704 | 57 | 0 | 0.0 | 0.0 | 0.00 | 0.00 | 0.00 | 74 | 1059.4 |
| 20260510051804 | 57 | 0 | 0.0 | 0.0 | 0.00 | 0.00 | 0.00 | 75 | 1059.3 |
| 20260510050904 | 57 | 251 | 0.0 | 1.0 | 0.00 | 0.00 | 0.00 | 74 | 1059.4 |
| 20260510050004 | 58 | 0 | 0.0 | 0.0 | 0.00 | 0.00 | 0.00 | 71 | 1059.5 |
| 20260510045404 | 58 | 0 | 0.0 | 0.0 | 0.00 | 0.00 | 0.00 | 71 | 1059.6 |
| 20260510044504 | 59 | 310 | 0.0 | 1.0 | 0.00 | 0.00 | 0.00 | 70 | 1059.4 |
| 20260510043604 | 59 | 310 | 0.0 | 1.0 | 0.00 | 0.00 | 0.00 | 68 | 1059.1 |
| 20260510042704 | 59 | 247 | 0.0 | 1.0 | 0.00 | 0.00 | 0.00 | 68 | 1059.4 |
| 20260510041804 | 60 | 0 | 0.0 | 0.0 | 0.00 | 0.00 | 0.00 | 66 | 1059.4 |
| 20260510040904 | 60 | 236 | 0.0 | 1.0 | 0.00 | 0.00 | 0.00 | 68 | 1059.3 |
| 20260510040005 | 61 | 231 | 0.0 | 1.0 | 0.00 | 0.00 | 0.00 | 67 | 1059.3 |
| 20260510035404 | 61 | 0 | 0.0 | 0.0 | 0.00 | 0.00 | 0.00 | 64 | 1059.1 |
| 20260510034504 | 60 | 286 | 0.0 | 1.0 | 0.00 | 0.00 | 0.00 | 66 | 1059.5 |
| 20260510033604 | 60 | 221 | 0.0 | 2.0 | 0.00 | 0.00 | 0.00 | 66 | 1059.3 |
| 20260510032725 | 62 | 210 | 0.0 | 2.0 | 0.00 | 0.00 | 0.00 | 65 | 1059.1 |
| 20260510031804 | 62 | 0 | 0.0 | 0.0 | 0.00 | 0.00 | 0.00 | 61 | 1059.1 |
| 20260510030925 | 62 | 0 | 0.0 | 0.0 | 0.00 | 0.00 | 0.00 | 63 | 1059.1 |
| 20260510030004 | 62 | 0 | 0.0 | 0.0 | 0.00 | 0.00 | 0.00 | 60 | 1059.0 |
| 20260510025404 | 62 | 0 | 0.0 | 0.0 | 0.00 | 0.00 | 0.00 | 61 | 1058.9 |
| 20260510024504 | 62 | 0 | 0.0 | 0.0 | 0.00 | 0.00 | 0.00 | 60 | 1059.1 |
| 20260510023604 | 62 | 281 | 0.0 | 1.0 | 0.00 | 0.00 | 0.00 | 59 | 1058.7 |
| 20260510022704 | 62 | 319 | 0.0 | 1.0 | 0.00 | 0.00 | 0.00 | 59 | 1058.9 |
| 20260510021825 | 62 | 322 | 0.0 | 1.0 | 0.00 | 0.00 | 0.00 | 60 | 1058.7 |
| 20260510020904 | 63 | 239 | 0.0 | 1.0 | 0.00 | 0.00 | 0.00 | 60 | 1058.5 |
| 20260510020025 | 63 | 249 | 0.0 | 2.0 | 0.00 | 0.00 | 0.00 | 60 | 1058.4 |
| 20260510015425 | 63 | 0 | 0.0 | 0.0 | 0.00 | 0.00 | 0.00 | 59 | 1058.4 |
| 20260510014504 | 63 | 0 | 0.0 | 0.0 | 0.00 | 0.00 | 0.00 | 59 | 1058.0 |
| 20260510013604 | 63 | 0 | 0.0 | 0.0 | 0.00 | 0.00 | 0.00 | 59 | 1057.8 |
| 20260510012704 | 63 | 0 | 0.0 | 0.0 | 0.00 | 0.00 | 0.00 | 58 | 1057.6 |
| 20260510011825 | 63 | 275 | 0.0 | 1.0 | 0.00 | 0.00 | 0.00 | 60 | 1057.7 |
| 20260510010904 | 64 | 0 | 0.0 | 0.0 | 0.00 | 0.00 | 0.00 | 57 | 1057.6 |
| 20260510010004 | 64 | 0 | 0.0 | 0.0 | 0.00 | 0.00 | 0.00 | 59 | 1057.4 |
| 20260510005404 | 65 | 0 | 0.0 | 0.0 | 0.00 | 0.00 | 0.00 | 55 | 1057.5 |
| 20260510004504 | 65 | 278 | 0.0 | 1.0 | 0.00 | 0.00 | 0.00 | 54 | 1057.0 |
| 20260510003604 | 66 | 0 | 0.0 | 0.0 | 0.00 | 0.00 | 0.00 | 54 | 1057.4 |
| 20260510002704 | 67 | 253 | 0.0 | 1.0 | 0.00 | 0.00 | 0.00 | 54 | 1057.3 |
| 20260510001825 | 68 | 248 | 0.0 | 1.0 | 0.00 | 0.00 | 0.00 | 48 | 1057.2 |
| 20260510000904 | 68 | 243 | 0.0 | 2.0 | 0.00 | 0.00 | 0.00 | 47 | 1056.9 |
| 20260510000025 | 70 | 226 | 1.0 | 3.0 | 0.00 | 0.00 | 0.00 | 44 | 1056.6 |
| 20260509235404 | 69 | 234 | 1.0 | 3.0 | 0.00 | 0.00 | 0.00 | 46 | 1056.6 |
| 20260509234504 | 70 | 220 | 1.0 | 3.0 | 0.00 | 0.00 | 0.00 | 44 | 1056.5 |
| 20260509233625 | 71 | 225 | 1.0 | 3.0 | 0.00 | 0.00 | 0.00 | 43 | 1056.3 |
| 20260509232704 | 71 | 213 | 1.0 | 4.0 | 0.00 | 0.00 | 0.00 | 42 | 1056.5 |
| 20260509231804 | 72 | 212 | 2.0 | 6.0 | 0.00 | 0.00 | 0.00 | 43 | 1056.1 |
| 20260509230904 | 72 | 223 | 1.0 | 4.0 | 0.00 | 0.00 | 0.00 | 44 | 1056.2 |
| 20260509230004 | 72 | 218 | 2.0 | 7.0 | 0.00 | 0.00 | 0.00 | 42 | 1055.9 |
| 20260509225404 | 72 | 226 | 1.0 | 7.0 | 0.00 | 0.00 | 0.00 | 43 | 1055.9 |
| 20260509224504 | 72 | 230 | 1.0 | 4.0 | 0.00 | 0.00 | 0.00 | 44 | 1056.1 |
| 20260509223604 | 73 | 209 | 1.0 | 6.0 | 0.00 | 0.00 | 0.00 | 44 | 1055.9 |
| 20260509222704 | 72 | 235 | 1.0 | 3.0 | 0.00 | 0.00 | 0.00 | 45 | 1056.0 |
| 20260509221804 | 73 | 217 | 1.0 | 7.0 | 0.00 | 0.00 | 0.00 | 45 | 1055.9 |
| 20260509220904 | 72 | 222 | 1.0 | 6.0 | 0.00 | 0.00 | 0.00 | 46 | 1056.0 |
| 20260509220004 | 73 | 227 | 1.0 | 4.0 | 0.00 | 0.00 | 0.00 | 46 | 1055.8 |
| 20260509215404 | 73 | 233 | 1.0 | 3.0 | 0.00 | 0.00 | 0.00 | 45 | 1055.9 |
| 20260509214504 | 73 | 238 | 1.0 | 3.0 | 0.00 | 0.00 | 0.00 | 44 | 1055.8 |
| 20260509213625 | 74 | 234 | 1.0 | 3.0 | 0.00 | 0.00 | 0.00 | 44 | 1055.7 |
| 20260509212725 | 74 | 214 | 1.0 | 6.0 | 0.00 | 0.00 | 0.00 | 43 | 1055.7 |
| 20260509211804 | 74 | 234 | 1.0 | 3.0 | 0.00 | 0.00 | 0.00 | 43 | 1055.7 |
| 20260509210904 | 75 | 225 | 1.0 | 4.0 | 0.00 | 0.00 | 0.00 | 43 | 1055.5 |
| 20260509210004 | 77 | 227 | 2.0 | 7.0 | 0.00 | 0.00 | 0.00 | 38 | 1055.4 |
| 20260509205404 | 79 | 231 | 2.0 | 7.0 | 0.00 | 0.00 | 0.00 | 37 | 1055.4 |
| 20260509204525 | 79 | 222 | 2.0 | 7.0 | 0.00 | 0.00 | 0.00 | 35 | 1055.4 |
| 20260509203604 | 76 | 232 | 2.0 | 4.0 | 0.00 | 0.00 | 0.00 | 41 | 1055.4 |
| 20260509202704 | 78 | 224 | 2.0 | 9.0 | 0.00 | 0.00 | 0.00 | 37 | 1055.6 |
| 20260509201804 | 80 | 212 | 3.0 | 9.0 | 0.00 | 0.00 | 0.00 | 37 | 1055.4 |
| 20260509200904 | 79 | 202 | 2.0 | 7.0 | 0.00 | 0.00 | 0.00 | 38 | 1055.3 |
| 20260509200004 | 78 | 218 | 2.0 | 9.0 | 0.00 | 0.00 | 0.00 | 39 | 1055.3 |
| 20260509195404 | 78 | 228 | 2.0 | 4.0 | 0.00 | 0.00 | 0.00 | 39 | 1055.4 |
| 20260509194504 | 77 | 244 | 2.0 | 6.0 | 0.00 | 0.00 | 0.00 | 41 | 1055.5 |
| 20260509193604 | 76 | 247 | 2.0 | 4.0 | 0.00 | 0.00 | 0.00 | 47 | 1055.5 |
| 20260509192704 | 74 | 255 | 1.0 | 4.0 | 0.00 | 0.00 | 0.00 | 52 | 1055.3 |
| 20260509191804 | 72 | 268 | 2.0 | 6.0 | 0.00 | 0.00 | 0.00 | 54 | 1055.7 |
| 20260509190925 | 73 | 269 | 2.0 | 6.0 | 0.00 | 0.00 | 0.00 | 53 | 1055.6 |
| 20260509190004 | 74 | 266 | 2.0 | 6.0 | 0.00 | 0.00 | 0.00 | 52 | 1055.6 |
| 20260509185425 | 74 | 254 | 2.0 | 4.0 | 0.00 | 0.00 | 0.00 | 54 | 1055.8 |
| 20260509184504 | 76 | 242 | 2.0 | 6.0 | 0.00 | 0.00 | 0.00 | 50 | 1055.7 |
| 20260509183604 | 74 | 258 | 2.0 | 4.0 | 0.00 | 0.00 | 0.00 | 51 | 1055.9 |
| 20260509182725 | 73 | 238 | 2.0 | 8.0 | 0.00 | 0.00 | 0.00 | 53 | 1055.9 |
| 20260509181804 | 74 | 258 | 2.0 | 6.0 | 0.00 | 0.00 | 0.00 | 53 | 1056.0 |
| 20260509180904 | 74 | 230 | 3.0 | 9.0 | 0.00 | 0.00 | 0.00 | 55 | 1056.4 |
| 20260509180004 | 72 | 200 | 3.0 | 11.0 | 0.00 | 0.00 | 0.00 | 54 | 1056.5 |
| 20260509175404 | 71 | 220 | 2.0 | 7.0 | 0.00 | 0.00 | 0.00 | 58 | 1056.5 |
| 20260509174504 | 73 | 251 | 1.0 | 3.0 | 0.00 | 0.00 | 0.00 | 58 | 1056.4 |